Regional Weather Roundup
Issued by NWS

Home | Current Version | Previous Version | Graphics & Text | Print | Product List | Glossary Off
Versions: 1 2 3 4 5 6 7 8 9 10 11 12 13 14 15 16 17 18 19 20 21 22 23 24 25 26 27 28 29 30 31 32 33 34 35 36 37 38 39 40 41 42 43 44 45 46 47 48 49 50

000
ASUS45 KSLC 252010
RWRUT

UTAH REGIONAL WEATHER ROUNDUP
NATIONAL WEATHER SERVICE SALT LAKE CITY UT
100 PM MST SUN JAN 25 2015

UTZ001>011-023>025-252100-

NORTHERN UTAH

CITY           SKY/WX    TMP DP  RH WIND       PRES   REMARKS
BRIGHAM CITY   PTSUNNY   44  30  57 CALM      30.47F
HILL AFB       SUNNY     45  22  40 SW3       30.44F
LOGAN          CLOUDY    38  31  76 N3        30.46F
OGDEN          SUNNY     46  29  51 W6        30.45F
PROVO AIRPORT  NOT AVBL
SALT LAKE CITY MOSUNNY   48  29  47 CALM      30.44F
VERNAL         MOSUNNY   39  18  42 S5        30.37F
WENDOVER       SUNNY     41  28  60 SE6       30.46F
HEBER CITY     SUNNY     43  32  65 SE6       30.43F
WEST JORDAN    SUNNY     48  32  53 CALM      30.45F

$$

UTZ012>022-026-027-252100-

SOUTHERN/CENTRAL UTAH

CITY           SKY/WX    TMP DP  RH WIND       PRES   REMARKS
BLANDING       SUNNY     53  24  32 S6        30.38F
BRYCE CANYON   SUNNY     47  29  49 NE10      30.40F
CEDAR CITY     SUNNY     49  30  48 N7        30.38F
DELTA          SUNNY     48  32  53 N6        30.43F
MILFORD        SUNNY     49  31  49 N15       30.39F
MOAB/CYNLANDS  SUNNY     44  19  36 CALM      30.36F
PRICE          SUNNY     45  22  40 VRB5      30.36F
ST GEORGE      CLEAR     55  28  35 CALM      30.31F
KANAB          SUNNY     61  27  27 NE10      30.33F

$$

REGIONAL REPORTS     COLORADO/ARIZONA

CITY           SKY/WX    TMP DP  RH WIND       PRES   REMARKS
CRAIG, CO      MOSUNNY   34  23  64 CALM      30.36F
GRAND JUNCTION SUNNY     45  18  34 CALM      30.35F
RIFLE          MOSUNNY   44  19  36 CALM      30.35F
MONTROSE       SUNNY     45  19  35 N7        30.37F
CORTEZ         SUNNY     47  23  38 S10       30.30F
PAGE, AZ       NOT AVBL
GRAND CANYON   SUNNY     53  21  28 NE20G28   30.34F
KINGMAN        SUNNY     62  25  24 N14       30.22F
FLAGSTAFF      SUNNY     52  21  29 E21       30.31F

$$

REGIONAL REPORTS    NEVADA/IDAHO/WYOMING

CITY           SKY/WX    TMP DP  RH WIND       PRES   REMARKS
LAS VEGAS, NV  SUNNY     67  31  26 VRB5      30.20F
ELY            SUNNY     51  32  48 NW7       30.42F
ELKO           SUNNY     48  31  51 CALM      30.44F
POCATELLO, ID  PTSUNNY   37  32  82 NE6       30.45F WCI  32
BURLEY         MOSUNNY   47  33  58 N6        30.40F
EVANSTON, WY   MOSUNNY   43  31  62 W6        30.42F
ROCK SPRINGS   CLOUDY    43  30  60 W22       30.32S
KEMMERER       PTSUNNY   37  32  81 W17G25    30.40F WCI  28

$$



USA.gov is the U.S. government's official web portal to all federal, state and local government web resources and services.